SCP
0 0 0 -0 -0 0 0 0 0 0 0 0 0 0 1 0 0 0 0 0 0 0 -0 0 0 0 0 0 0 0 0 0 0 0 0 0 0 0 0 0 0 0 0 0
0 -0 0 0 0 0 0 0 0 0 0 0 0 0 0 0 0 0 0 0 0 0 -0 -0 -0 0 0 0 0 0 0 0 0 0 0 0 0 0 0 0 0 0 0 0
0 -0 0 -0 0 0 0 0 0 0 0 0 0 0 0 1 0 0 0 0 0 0 0 0 0 0 0 0 0 0 0 0 0 0 0 0 0 0 0 0 0 0 0 0
0 0 0 0 0 0 0 0 0 0 0 0 0 0 0 0 0 0 0 0 0 0 0 0 0 0 0 0 0 0 0 0 0 0 0 0 0 0 0 0 0 0 0 0
0 0 0 0 0 0 0 0 0 0 0 0 0 0 0 0 0 0 0 0 0 0 0 0 0 0 0 0 0 0 0 0 0 0 0 0 0 0 0 0 0 0 0 0
0 0 0 0 0 0 0 0 0 0 0 0 0 0 0 0 0 0 0 0 0 0 0 0 0 0 0 0 0 0 0 0 0 0 0 0 0 0 0 0 0 0 0 0
0 0 0 0 0 0 0 0 0 0 0 0 0 0 0 0 0 0 0 0 0 0 0 0 0 0 0 0 0 0 0 0 0 0 0 0 0 0 0 0 0 0 0 0
0 0 0 0 0 0 0 0 0 0 0 0 0 0 0 0 0 0 0 0 0 0 0 0 0 0 0 0 0 0 0 0 0 0 0 0 0 0 0 0 0 0 0 0
0 0 0 0 0 0 0 0 0 0 0 0 0 0 0 0 0 0 0 0 0 0 0 0 0 0 0 0 0 0 0 0 0 0 0 0 0 0 0 0 0 0 0 0
0 0 0 0 0 0 0 0 0 0 0 0 0 0 0 0 0 0 0 0 0 0 0 0 0 0 0 0 0 0 0 0 0 0 0 0 0 0 0 0 0 0 0 0
0 0 0 0 0 0 0 0 0 0 0 0 0 0 0 0 0 0 0 0 0 0 0 0 0 0 0 0 0 0 0 0 0 0 0 0 0 0 0 0 0 0 0 0
0 0 0 0 0 0 0 0 0 0 0 0 0 0 0 0 0 0 0 0 0 0 0 0 0 0 0 0 0 0 0 0 0 0 0 0 0 0 0 0 0 0 0 0
0 0 0 0 0 0 0 0 0 0 0 0 0 0 0 0 0 0 0 0 0 0 0 0 0 0 0 0 0 0 0 0 0 0 0 0 0 0 0 0 0 0 0 0
0 0 0 0 0 0 0 0 0 0 0 0 0 0 0 0 0 0 0 0 0 0 0 0 0 0 0 0 0 0 0 0 0 0 0 0 0 0 0 0 0 0 0 0
0 0 0 0 0 0 0 0 0 0 0 0 0 0 0 0 0 0 0 0 0 0 0 0 0 0 0 0 0 0 0 0 0 0 0 0 0 0 0 0 0 0 0 0
0 0 0 0 0 0 0 0 0 0 0 0 0 0 0 0 0 0 0 0 0 0 0 0 0 0 0 0 0 0 0 0 0 0 0 0 0 0 0 0 0 0 0 0
0 0 0 0 0 0 0 0 0 0 0 0 0 0 0 0 0 0 0 0 0 0 0 0 0 0 0 0 0 0 0 0 0 0 0 0 0 0 0 0 0 0 0 0
0 0 0 0 0 0 0 0 0 0 0 0 0 0 0 0 0 0 0 0 0 0 0 0 0 0 0 0 0 0 0 0 0 0 0 0 0 0 0 0 0 0 0 0
0 0 0 0 0 0 0 0 0 0 0 0 0 0 0 0 0 0 0 0 0 0 0 0 0 0 0 0 0 0 0 0 0 0 0 0 0 0 0 0 0 0 0 0
0 0 0 0 0 0 0 0 0 0 0 0 0 0 0 0 0 0 0 0 0 0 0 0 0 0 0 0 0 0 0 0 0 0 0 0 0 0 0 0 0 0 0 0
0 0 0 0 0 0 0 0 0 0 0 0 0 0 0 0 0 0 0 0 0 0 0 0 0 0 0 0 0 0 0 0 0 0 0 0 0 0 0 0 0 0 0 0
0 0 0 0 0 0 0 0 0 0 0 0 0 0 0 0 0 0 0 0 0 0 0 0 0 0 0 0 0 0 0 0 0 0 0 0 0 0 0 0 0 0 0 0
0 0 0 0 0 0 0 0 0 0 0 0 0 0 0 0 0 0 0 0 0 0 0 0 0 0 0 0 0 0 0 0 0 0 0 0 0 0 0 0 0 0 0 -0
0 0 0 0 0 0 0 0 0 0 0 0 0 0 0 0 0 0 0 0 0 0 0 0 0 0 0 0 0 0 0 0 0 0 0 0 0 0 0 0 0 -0 -0 -0
0 0 0 0 0 0 0 0 0 0 0 0 0 0 0 0 0 0 0 0 0 0 0 0 0 0 0 0 0 0 0 0 0 0 0 0 0 0 0 -0 -0 -0 -0 -0
0 0 0 0 0 0 0 0 0 0 0 0 0 0 0 0 0 0 0 0 0 0 0 0 0 0 0 0 0 0 0 0 0 0 0 0 0 0 0 0 0 0 0 0
Wind_Speed_500mb
7 8 11 23 24 13 10 12 15 6 10 7 19 12 21 38 33 31 42 45 46 40 29 31 30 34 31 28 22 23 29 31 38 43 46 45 48 52 50 50 46 45 45 43
7 8 21 8 11 9 9 6 11 5 4 4 6 7 13 29 39 34 38 44 48 42 36 34 34 34 30 24 22 24 22 22 26 31 33 38 41 44 45 45 39 40 43 44
9 20 9 5 6 6 7 10 9 8 9 3 10 9 12 13 29 33 41 44 48 43 40 38 37 34 32 29 20 25 23 22 21 23 30 38 41 43 49 46 42 40 45 46
10 9 6 7 11 13 10 15 9 11 8 8 4 8 10 12 19 33 38 40 51 48 46 42 38 33 28 26 25 26 22 18 19 25 30 34 39 48 50 48 41 40 41 45
23 7 6 8 11 14 18 9 10 8 8 6 1 4 10 2 12 20 35 50 46 48 49 37 33 29 28 26 30 23 12 15 20 24 26 26 33 39 44 45 45 46 47 45
19 4 8 15 8 10 6 7 12 8 8 3 8 10 12 9 11 8 26 29 25 26 29 26 26 28 30 31 25 18 16 19 18 23 24 27 30 33 41 44 50 59 58 52
10 11 9 7 1 6 13 11 6 5 5 11 8 6 17 10 13 13 21 28 28 29 32 31 29 28 26 26 22 17 19 18 22 24 27 29 28 32 39 43 49 53 57 56
6 15 2 1 8 11 11 15 10 11 8 10 5 11 10 10 17 18 26 30 32 33 32 30 29 27 28 26 19 20 23 23 28 30 30 30 34 34 40 45 53 57 52 52
12 11 6 7 5 12 6 7 7 8 4 4 5 12 12 3 4 8 24 29 31 33 36 33 31 30 32 23 18 20 21 31 32 31 33 36 36 39 40 47 55 55 53 52
5 5 2 7 3 6 4 8 4 5 5 9 6 8 9 10 16 15 19 34 37 35 34 29 28 29 30 19 21 27 30 33 31 32 38 38 41 40 45 54 54 55 55 53
5 6 10 4 2 5 7 5 11 7 7 5 4 11 13 17 20 20 32 40 42 35 27 29 27 28 31 26 30 36 36 32 32 34 35 40 40 46 48 54 51 50 51 50
2 8 5 9 7 6 1 2 7 9 9 2 6 13 4 12 20 30 36 35 35 29 27 28 28 28 29 32 33 33 28 30 34 37 35 41 48 53 61 57 48 47 53 53
10 3 5 14 11 9 6 4 8 8 5 10 7 12 5 12 12 14 28 35 32 23 28 25 25 24 27 28 24 22 26 32 34 35 42 51 60 65 59 47 47 52 54 55
7 5 9 9 12 5 10 15 4 9 5 2 8 14 12 12 9 2 16 22 17 16 17 20 15 11 4 6 13 23 28 30 38 46 51 55 54 53 50 48 49 51 52 50
7 5 3 8 11 4 4 9 7 3 3 4 11 6 12 12 13 14 15 9 8 11 18 17 8 2 8 15 23 26 29 34 41 48 52 48 49 50 48 45 43 42 44 44
6 2 2 7 6 6 6 12 8 8 2 5 7 10 6 19 9 10 4 9 17 18 12 7 2 8 18 22 21 24 30 36 46 46 47 51 50 44 43 39 38 40 44 43
6 6 6 7 10 4 6 6 6 3 5 4 6 8 18 17 23 15 13 21 26 16 10 2 9 17 18 17 20 26 35 39 42 45 45 43 42 40 38 35 36 38 43 43
8 7 4 5 11 6 6 3 4 3 4 9 8 8 12 16 22 19 18 22 17 8 1 10 14 14 14 16 23 33 33 39 38 37 35 38 38 35 34 35 39 39 40 40
5 9 5 5 2 8 2 6 4 7 6 8 8 6 16 20 15 17 12 7 2 3 8 10 15 13 12 22 30 29 31 36 39 35 36 37 37 37 39 45 45 41 36 36
11 12 8 4 4 3 4 6 2 3 8 9 12 14 11 6 8 8 10 5 6 9 11 16 16 11 19 25 28 32 29 34 37 36 39 42 41 39 44 49 42 38 32 32
5 5 5 3 1 8 6 16 4 8 9 7 5 2 4 4 7 6 11 9 13 13 12 17 15 13 24 23 29 32 33 36 38 41 43 41 45 39 40 42 33 35 31 26
5 6 2 5 2 2 13 5 5 7 2 3 1 1 4 6 3 2 8 16 17 15 18 20 19 17 23 23 29 36 32 31 37 45 44 42 48 34 39 37 32 31 28 24
3 7 6 8 8 6 10 4 4 2 1 4 7 8 8 3 5 12 20 24 22 20 20 20 22 23 24 26 29 35 35 34 46 47 42 38 45 30 35 38 32 27 22 19
7 5 6 4 3 6 4 3 4 2 3 4 7 10 6 5 9 15 20 22 26 25 22 20 24 29 29 29 34 35 34 43 49 42 39 36 43 29 33 34 32 26 17 22
2 5 3 3 7 10 4 9 6 3 1 2 8 6 5 11 12 19 24 21 22 24 24 27 29 31 30 31 37 34 34 44 51 38 35 36 31 29 32 28 28 31 29 28
5 7 6 5 3 2 13 10 7 6 6 3 8 7 8 18 24 26 31 27 26 26 27 35 34 32 28 34 35 31 30 39 43 34 31 24 28 30 31 31 31 26 23 23
Wind_Direction_500mb
186 98 216 223 201 235 205 205 220 197 190 138 212 229 190 202 212 224 225 221 218 222 228 234 230 236 235 239 253 269 273 279 279 283 288 296 298 296 307 308 298 291 287 286
36 248 243 217 219 192 202 221 242 214 63 162 108 298 219 211 222 224 230 233 232 231 232 232 231 235 235 242 256 260 274 284 284 284 290 294 297 305 305 311 299 289 294 291
166 246 82 311 307 209 230 200 235 219 113 119 136 279 211 215 219 232 244 247 245 242 239 236 238 241 242 234 249 256 265 270 279 293 303 305 306 308 315 315 305 287 292 293
232 309 224 283 251 160 253 210 219 133 118 238 13 267 243 209 207 222 232 240 244 245 246 248 248 248 250 244 240 252 258 271 300 312 313 313 319 317 314 315 315 312 309 307
258 271 258 251 241 165 233 206 207 142 131 92 241 87 262 37 248 229 225 236 243 247 245 246 247 245 235 227 238 243 267 301 312 311 316 319 334 329 316 314 315 315 308 312
250 191 204 224 263 176 90 70 46 61 101 199 204 155 280 206 222 214 223 228 231 221 216 211 214 215 224 230 232 242 275 296 318 331 314 302 307 315 308 310 312 310 310 312
325 279 254 195 102 51 69 58 315 327 345 239 165 129 246 252 246 240 199 203 194 189 192 198 207 215 225 222 225 257 282 299 319 309 298 289 301 303 309 309 316 312 309 311
203 319 286 209 189 204 187 160 168 236 233 273 181 235 259 239 277 247 213 203 192 192 193 204 211 214 209 237 243 266 284 295 298 285 280 282 287 291 304 311 316 315 306 311
181 262 263 197 209 150 193 188 172 129 35 68 252 294 298 279 294 211 197 198 202 203 200 203 207 212 220 228 268 283 282 301 285 278 286 289 282 287 297 302 303 302 305 310
304 318 277 309 51 11 179 158 14 11 288 289 305 284 248 249 239 217 206 210 209 203 199 207 219 230 233 249 271 264 278 280 276 280 282 277 282 287 296 304 299 302 305 310
108 108 295 353 328 242 5 8 55 115 133 199 292 264 218 224 218 209 215 214 211 203 216 230 229 225 231 248 257 261 265 269 277 276 275 284 292 299 306 306 303 302 304 308
103 142 249 254 325 305 8 360 141 120 261 127 159 272 322 286 280 249 218 214 202 209 219 209 222 233 244 251 265 270 267 277 277 279 284 295 302 304 305 303 300 303 307 306
186 83 15 351 354 360 28 320 110 109 85 203 149 270 336 321 311 257 209 186 193 207 200 221 240 243 247 258 269 273 283 284 287 297 305 306 305 304 301 294 298 306 312 313
127 97 141 197 228 205 306 307 172 141 132 200 237 308 326 302 287 232 179 180 185 197 220 237 235 241 226 309 304 301 299 299 303 306 306 310 311 308 303 294 295 307 313 315
97 130 164 248 250 230 21 316 74 95 108 104 290 287 309 313 248 199 181 171 185 200 188 161 141 232 334 322 313 305 303 301 305 310 310 309 309 309 304 299 300 305 314 313
353 151 117 332 27 312 88 13 47 51 48 292 308 298 8 347 73 129 147 167 143 124 104 149 110 318 326 319 301 296 304 311 314 310 309 311 311 314 313 304 303 313 314 314
70 94 56 275 335 34 30 338 344 311 35 322 346 321 341 24 43 55 117 145 145 155 176 263 334 331 316 294 298 312 319 322 316 311 315 317 315 313 319 315 313 316 318 316
117 100 88 270 358 18 255 195 251 319 60 14 46 26 56 88 81 92 127 139 149 153 307 337 331 307 281 302 322 326 333 334 326 328 334 331 329 321 320 322 321 314 318 325
72 119 103 112 147 296 357 1 15 55 331 19 106 99 117 112 83 73 117 126 107 323 324 332 325 296 309 327 333 336 337 343 346 332 331 329 327 325 322 321 323 316 312 326
57 67 110 93 79 250 264 340 212 103 341 12 110 173 190 339 22 266 205 220 286 312 322 323 311 295 330 341 344 344 334 338 341 340 333 329 322 316 322 322 322 327 318 322
38 16 103 96 185 297 274 316 211 56 251 350 25 164 214 245 247 313 215 260 279 282 303 318 284 304 346 349 339 335 330 333 334 334 332 333 329 319 327 329 327 329 326 327
154 127 134 84 55 332 353 346 54 211 177 299 289 195 314 301 279 230 292 290 279 291 311 319 290 303 344 334 326 339 341 334 331 332 329 334 331 320 337 336 332 331 329 332
60 164 176 155 213 275 354 19 86 164 241 245 252 259 280 277 308 312 313 293 281 283 303 311 300 296 322 323 319 331 344 332 334 329 327 329 339 333 334 336 339 333 338 322
14 100 95 90 321 323 324 360 298 234 346 256 293 289 264 294 328 333 328 320 298 290 300 313 298 301 312 317 320 328 337 333 333 327 331 328 335 337 343 341 340 336 345 338
241 31 127 350 335 5 9 287 253 166 267 23 18 290 290 306 304 303 311 309 311 297 296 296 297 306 306 321 319 324 328 328 331 323 335 345 360 356 350 353 356 357 350 347
356 167 116 207 266 224 317 315 225 262 271 329 316 302 271 273 282 289 298 299 294 295 296 287 291 301 312 315 322 323 327 324 326 324 327 338 350 349 352 342 341 348 351 342
Wind_Speed_850mb
7 8 11 23 24 13 10 12 15 6 10 7 19 12 21 38 33 31 42 45 46 40 29 31 30 34 31 28 22 23 29 31 38 43 46 45 48 52 50 50 46 45 45 43
7 8 21 8 11 9 9 6 11 5 4 4 6 7 13 29 39 34 38 44 48 42 36 34 34 34 30 24 22 24 22 22 26 31 33 38 41 44 45 45 39 40 43 44
9 20 9 5 6 6 7 10 9 8 9 3 10 9 12 13 29 33 41 44 48 43 40 38 37 34 32 29 20 25 23 22 21 23 30 38 41 43 49 46 42 40 45 46
10 9 6 7 11 13 10 15 9 11 8 8 4 8 10 12 19 33 38 40 51 48 46 42 38 33 28 26 25 26 22 18 19 25 30 34 39 48 50 48 41 40 41 45
23 7 6 8 11 14 18 9 10 8 8 6 1 4 10 2 12 20 35 50 46 48 49 37 33 29 28 26 30 23 12 15 20 24 26 26 33 39 44 45 45 46 47 45
19 4 8 15 8 10 6 7 12 8 8 3 8 10 12 9 11 8 26 29 25 26 29 26 26 28 30 31 25 18 16 19 18 23 24 27 30 33 41 44 50 59 58 52
10 11 9 7 1 6 13 11 6 5 5 11 8 6 17 10 13 13 21 28 28 29 32 31 29 28 26 26 22 17 19 18 22 24 27 29 28 32 39 43 49 53 57 56
6 15 2 1 8 11 11 15 10 11 8 10 5 11 10 10 17 18 26 30 32 33 32 30 29 27 28 26 19 20 23 23 28 30 30 30 34 34 40 45 53 57 52 52
12 11 6 7 5 12 6 7 7 8 4 4 5 12 12 3 4 8 24 29 31 33 36 33 31 30 32 23 18 20 21 31 32 31 33 36 36 39 40 47 55 55 53 52
5 5 2 7 3 6 4 8 4 5 5 9 6 8 9 10 16 15 19 34 37 35 34 29 28 29 30 19 21 27 30 33 31 32 38 38 41 40 45 54 54 55 55 53
5 6 10 4 2 5 7 5 11 7 7 5 4 11 13 17 20 20 32 40 42 35 27 29 27 28 31 26 30 36 36 32 32 34 35 40 40 46 48 54 51 50 51 50
2 8 5 9 7 6 1 2 7 9 9 2 6 13 4 12 20 30 36 35 35 29 27 28 28 28 29 32 33 33 28 30 34 37 35 41 48 53 61 57 48 47 53 53
10 3 5 14 11 9 6 4 8 8 5 10 7 12 5 12 12 14 28 35 32 23 28 25 25 24 27 28 24 22 26 32 34 35 42 51 60 65 59 47 47 52 54 55
7 5 9 9 12 5 10 15 4 9 5 2 8 14 12 12 9 2 16 22 17 16 17 20 15 11 4 6 13 23 28 30 38 46 51 55 54 53 50 48 49 51 52 50
7 5 3 8 11 4 4 9 7 3 3 4 11 6 12 12 13 14 15 9 8 11 18 17 8 2 8 15 23 26 29 34 41 48 52 48 49 50 48 45 43 42 44 44
6 2 2 7 6 6 6 12 8 8 2 5 7 10 6 19 9 10 4 9 17 18 12 7 2 8 18 22 21 24 30 36 46 46 47 51 50 44 43 39 38 40 44 43
6 6 6 7 10 4 6 6 6 3 5 4 6 8 18 17 23 15 13 21 26 16 10 2 9 17 18 17 20 26 35 39 42 45 45 43 42 40 38 35 36 38 43 43
8 7 4 5 11 6 6 3 4 3 4 9 8 8 12 16 22 19 18 22 17 8 1 10 14 14 14 16 23 33 33 39 38 37 35 38 38 35 34 35 39 39 40 40
5 9 5 5 2 8 2 6 4 7 6 8 8 6 16 20 15 17 12 7 2 3 8 10 15 13 12 22 30 29 31 36 39 35 36 37 37 37 39 45 45 41 36 36
11 12 8 4 4 3 4 6 2 3 8 9 12 14 11 6 8 8 10 5 6 9 11 16 16 11 19 25 28 32 29 34 37 36 39 42 41 39 44 49 42 38 32 32
5 5 5 3 1 8 6 16 4 8 9 7 5 2 4 4 7 6 11 9 13 13 12 17 15 13 24 23 29 32 33 36 38 41 43 41 45 39 40 42 33 35 31 26
5 6 2 5 2 2 13 5 5 7 2 3 1 1 4 6 3 2 8 16 17 15 18 20 19 17 23 23 29 36 32 31 37 45 44 42 48 34 39 37 32 31 28 24
3 7 6 8 8 6 10 4 4 2 1 4 7 8 8 3 5 12 20 24 22 20 20 20 22 23 24 26 29 35 35 34 46 47 42 38 45 30 35 38 32 27 22 19
7 5 6 4 3 6 4 3 4 2 3 4 7 10 6 5 9 15 20 22 26 25 22 20 24 29 29 29 34 35 34 43 49 42 39 36 43 29 33 34 32 26 17 22
2 5 3 3 7 10 4 9 6 3 1 2 8 6 5 11 12 19 24 21 22 24 24 27 29 31 30 31 37 34 34 44 51 38 35 36 31 29 32 28 28 31 29 28
5 7 6 5 3 2 13 10 7 6 6 3 8 7 8 18 24 26 31 27 26 26 27 35 34 32 28 34 35 31 30 39 43 34 31 24 28 30 31 31 31 26 23 23
Wind_Direction_850mb
186 98 216 223 201 235 205 205 220 197 190 138 212 229 190 202 212 224 225 221 218 222 228 234 230 236 235 239 253 269 273 279 279 283 288 296 298 296 307 308 298 291 287 286
36 248 243 217 219 192 202 221 242 214 63 162 108 298 219 211 222 224 230 233 232 231 232 232 231 235 235 242 256 260 274 284 284 284 290 294 297 305 305 311 299 289 294 291
166 246 82 311 307 209 230 200 235 219 113 119 136 279 211 215 219 232 244 247 245 242 239 236 238 241 242 234 249 256 265 270 279 293 303 305 306 308 315 315 305 287 292 293
232 309 224 283 251 160 253 210 219 133 118 238 13 267 243 209 207 222 232 240 244 245 246 248 248 248 250 244 240 252 258 271 300 312 313 313 319 317 314 315 315 312 309 307
258 271 258 251 241 165 233 206 207 142 131 92 241 87 262 37 248 229 225 236 243 247 245 246 247 245 235 227 238 243 267 301 312 311 316 319 334 329 316 314 315 315 308 312
250 191 204 224 263 176 90 70 46 61 101 199 204 155 280 206 222 214 223 228 231 221 216 211 214 215 224 230 232 242 275 296 318 331 314 302 307 315 308 310 312 310 310 312
325 279 254 195 102 51 69 58 315 327 345 239 165 129 246 252 246 240 199 203 194 189 192 198 207 215 225 222 225 257 282 299 319 309 298 289 301 303 309 309 316 312 309 311
203 319 286 209 189 204 187 160 168 236 233 273 181 235 259 239 277 247 213 203 192 192 193 204 211 214 209 237 243 266 284 295 298 285 280 282 287 291 304 311 316 315 306 311
181 262 263 197 209 150 193 188 172 129 35 68 252 294 298 279 294 211 197 198 202 203 200 203 207 212 220 228 268 283 282 301 285 278 286 289 282 287 297 302 303 302 305 310
304 318 277 309 51 11 179 158 14 11 288 289 305 284 248 249 239 217 206 210 209 203 199 207 219 230 233 249 271 264 278 280 276 280 282 277 282 287 296 304 299 302 305 310
108 108 295 353 328 242 5 8 55 115 133 199 292 264 218 224 218 209 215 214 211 203 216 230 229 225 231 248 257 261 265 269 277 276 275 284 292 299 306 306 303 302 304 308
103 142 249 254 325 305 8 360 141 120 261 127 159 272 322 286 280 249 218 214 202 209 219 209 222 233 244 251 265 270 267 277 277 279 284 295 302 304 305 303 300 303 307 306
186 83 15 351 354 360 28 320 110 109 85 203 149 270 336 321 311 257 209 186 193 207 200 221 240 243 247 258 269 273 283 284 287 297 305 306 305 304 301 294 298 306 312 313
127 97 141 197 228 205 306 307 172 141 132 200 237 308 326 302 287 232 179 180 185 197 220 237 235 241 226 309 304 301 299 299 303 306 306 310 311 308 303 294 295 307 313 315
97 130 164 248 250 230 21 316 74 95 108 104 290 287 309 313 248 199 181 171 185 200 188 161 141 232 334 322 313 305 303 301 305 310 310 309 309 309 304 299 300 305 314 313
353 151 117 332 27 312 88 13 47 51 48 292 308 298 8 347 73 129 147 167 143 124 104 149 110 318 326 319 301 296 304 311 314 310 309 311 311 314 313 304 303 313 314 314
70 94 56 275 335 34 30 338 344 311 35 322 346 321 341 24 43 55 117 145 145 155 176 263 334 331 316 294 298 312 319 322 316 311 315 317 315 313 319 315 313 316 318 316
117 100 88 270 358 18 255 195 251 319 60 14 46 26 56 88 81 92 127 139 149 153 307 337 331 307 281 302 322 326 333 334 326 328 334 331 329 321 320 322 321 314 318 325
72 119 103 112 147 296 357 1 15 55 331 19 106 99 117 112 83 73 117 126 107 323 324 332 325 296 309 327 333 336 337 343 346 332 331 329 327 325 322 321 323 316 312 326
57 67 110 93 79 250 264 340 212 103 341 12 110 173 190 339 22 266 205 220 286 312 322 323 311 295 330 341 344 344 334 338 341 340 333 329 322 316 322 322 322 327 318 322
38 16 103 96 185 297 274 316 211 56 251 350 25 164 214 245 247 313 215 260 279 282 303 318 284 304 346 349 339 335 330 333 334 334 332 333 329 319 327 329 327 329 326 327
154 127 134 84 55 332 353 346 54 211 177 299 289 195 314 301 279 230 292 290 279 291 311 319 290 303 344 334 326 339 341 334 331 332 329 334 331 320 337 336 332 331 329 332
60 164 176 155 213 275 354 19 86 164 241 245 252 259 280 277 308 312 313 293 281 283 303 311 300 296 322 323 319 331 344 332 334 329 327 329 339 333 334 336 339 333 338 322
14 100 95 90 321 323 324 360 298 234 346 256 293 289 264 294 328 333 328 320 298 290 300 313 298 301 312 317 320 328 337 333 333 327 331 328 335 337 343 341 340 336 345 338
241 31 127 350 335 5 9 287 253 166 267 23 18 290 290 306 304 303 311 309 311 297 296 296 297 306 306 321 319 324 328 328 331 323 335 345 360 356 350 353 356 357 350 347
356 167 116 207 266 224 317 315 225 262 271 329 316 302 271 273 282 289 298 299 294 295 296 287 291 301 312 315 322 323 327 324 326 324 327 338 350 349 352 342 341 348 351 342